User: anonymous   Login
Location: Altleiningen
(49.5078°N, 8.0741°E)
Time: 11:23:15
(UTC+00:00)
Language:

GP-B - Orbit

View from above orbital plane
View from above orbital plane
View from above satellite
View from above satellite

Ground track
Ground track

The orbit data is extracted from the following two-line orbital elements,

1 28230U 04014A   21133.38017338  .00000129  00000-0  15318-4 0  9991
2 28230  89.8136  91.0100 0003339  93.4844 266.6761 14.78806992377020
Epoch (UTC): 13 May 2021 09:07:26
Eccentricity: 0.0003339
inclination: 89.8136°
perigee height: 631 km
apogee height: 635 km
right ascension of ascending node: 91.0100°
argument of perigee: 93.4844°
revolutions per day: 14.78806992
mean anomaly at epoch: 266.6761°
orbit number at epoch: 37702

The dashed part of the orbit path shows where the satellite is in the earth's shadow,  

DLR